[[{"header":{"parameterUnit":"m.s-1","parameterCategory":1,"la1":30.2991,"la2":30.254,"lo1":-89.0895,"lo2":-89.0444,"dy":0.0017,"dx":0.0017,"nx":28,"ny":28,"refTime":"2023-10-19T03:00:00:Z","depth":0,"parameterNumber":2,"parameterNumberName":"U-component_of_WINDS"},"data":[0,0,0,0,0,0,0,0,0,0,0,0,0,0,0,0,0,0,0,0,0,0,0,0,0,0,0,0,0,0,0,0,0,0,0,0,0,0,0,0,0,0,0,0,0,0,0,0,0,0,0,0,0,0,0,0,0,0,2.7803,2.7804,0,2.7905,2.7906,2.7908,2.7873,2.7871,2.7869,2.7867,2.7974,2.7979,2.7984,0,0,0,0,0,0,0,0,0,0,0,0,0,2.758,2.7585,2.7803,2.7804,2.7805,2.7905,2.7906,2.7908,2.7874,2.7871,2.7868,2.7866,2.7973,2.7979,2.7985,0,0,0,0,0,0,0,0,0,0,0,0,0,2.7679,2.7586,2.7802,2.78,2.7801,2.7905,2.7906,2.7908,2.7874,2.7871,2.7867,2.7864,2.7971,2.7978,2.7985,2.8099,0,0,2.8008,2.8011,0,0,0,0,0,0,0,0,2.7674,2.7688,2.7799,2.78,2.7801,2.7873,2.7868,2.7972,2.7875,2.7846,2.7867,2.7863,2.7944,2.7953,2.798,2.8104,2.8108,2.8009,2.8013,2.8016,2.8019,0,0,0,0,0,0,0,2.7667,2.7683,2.7843,2.7801,2.7802,2.7795,2.7805,2.7887,2.7913,2.7849,2.7846,2.7859,2.7944,2.7973,2.7982,2.811,2.8009,2.8015,2.802,2.8023,2.8333,2.8337,0,0,0,0,0,0,2.7659,2.7678,2.784,2.7846,2.7728,2.7802,2.7813,2.7853,2.7912,2.7917,2.7862,2.7857,2.7962,2.7973,2.7986,2.8123,2.8016,2.8023,2.8028,2.833,2.8334,2.8338,0,0,0,0,0,0,2.7654,2.7674,2.7836,2.7761,2.7781,2.7809,2.7854,2.7857,2.7886,2.7921,2.7926,2.7886,2.7959,2.7975,2.8071,2.8126,2.8027,2.8034,2.8325,2.8331,2.8336,2.8397,0,0,0,0,0,0,2.7648,2.7672,2.7715,2.7763,2.7785,2.7918,2.7858,2.7862,2.7899,2.7894,2.7946,2.7951,2.7958,2.806,2.8078,2.8134,2.8039,2.832,2.8328,2.8334,2.8391,2.8404,2.8416,0,0,0,0,0,2.764,2.7728,2.7717,2.7737,2.7839,2.7922,2.7935,2.794,2.7903,2.7947,2.797,2.795,2.8117,2.807,2.809,2.815,2.8317,2.8326,2.8334,2.8385,2.8402,2.8416,0,0,0,0,0,0,2.7687,2.7734,2.7723,2.7828,2.7871,2.7916,2.797,2.7957,2.8012,2.8005,2.801,2.8022,2.8121,2.8145,2.8091,2.8263,2.8212,2.8225,2.8243,2.826,2.8272,2.8265,2.8046,0,0,0,0,0,2.7709,2.7771,2.781,2.79,2.7922,2.7943,2.7979,2.7979,2.8024,2.8042,2.8072,2.8117,2.818,2.8221,2.8281,2.8394,2.8406,2.8445,2.8458,2.8468,2.848,2.8542,2.8561,2.8366,2.8366,2.8366,0,0,2.7756,2.779,2.7829,2.791,2.7943,2.8009,2.7958,2.8029,2.8078,2.8053,2.8145,2.8169,2.822,2.8325,2.8373,2.8348,2.8536,2.8479,2.8487,2.8493,2.8553,2.8571,2.8588,2.8372,2.8371,2.837,0,0,2.7875,2.7907,2.7985,2.802,2.8071,2.8084,2.8103,2.815,2.8165,2.8257,2.824,2.8299,2.8407,2.8444,2.8477,2.8613,2.8597,2.8632,2.8699,2.8761,2.8776,2.8789,2.8838,2.8856,2.8643,2.8643,2.8643,0,2.7928,2.8025,2.8028,2.8101,2.8137,2.8117,2.8198,2.8231,2.8299,2.8326,2.8297,2.8433,2.8465,2.858,2.8613,2.864,2.8663,2.8626,2.8773,2.8787,2.88,2.8846,2.8865,2.8647,2.8647,2.8646,2.8646,0,2.8087,2.8155,2.8212,2.8278,2.8321,2.8398,2.8413,2.8457,2.8454,2.8471,2.8566,2.8605,2.8673,2.87,2.8698,2.8815,2.8798,2.8771,2.872,2.8822,2.8866,2.8884,2.8653,2.8652,2.865,2.8649,0,0,2.8237,2.8304,2.8326,2.8356,2.8411,2.8464,2.854,2.8606,2.8644,2.8692,2.8757,2.8849,2.8825,2.8863,2.8865,2.8919,2.9024,2.8886,2.8887,2.8911,2.9157,2.9176,2.9197,2.9014,2.9018,2.902,2.9153,0,2.8361,2.8494,2.85,2.8621,2.8684,2.8667,2.8734,2.8776,2.8794,2.8851,2.8872,2.8938,2.8901,2.8924,2.8976,2.9,2.9074,2.8991,2.9076,2.9079,2.9063,2.922,2.924,2.9363,2.917,2.9173,2.9175,0,2.8523,2.8576,2.8704,2.8751,2.8778,2.8838,2.8899,2.8954,2.9001,2.9011,2.9054,2.9049,2.9128,2.9074,2.9185,2.9128,2.9163,2.9181,2.9186,2.9194,2.9133,2.9232,2.9402,2.9421,2.9202,2.92,2.9198,0,2.8621,2.8724,2.8814,2.884,2.8898,2.894,2.8966,2.9011,2.905,2.9104,2.913,2.9193,2.9228,2.9277,2.929,2.9249,2.9401,2.9347,2.9412,2.9412,2.9444,2.9442,2.9622,2.9467,2.9467,2.9466,2.9466,0,2.8759,2.8838,2.8859,2.8914,2.9002,2.9009,2.9097,2.912,2.916,2.9221,2.921,2.9267,2.928,2.9341,2.9351,2.9441,2.9457,2.9468,2.947,2.9469,2.9468,2.9492,2.9484,2.9471,2.947,2.9469,2.9468,0,2.8883,2.89,2.8997,2.9043,2.9057,2.912,2.916,2.9214,2.9232,2.9309,2.9327,2.9355,2.9425,2.9443,2.9527,2.9534,2.9641,2.9635,2.9625,2.9625,2.9688,2.9682,2.989,2.9918,2.9745,2.9746,2.9748,0,2.8969,2.903,2.9083,2.9122,2.915,2.9214,2.9254,2.9263,2.9306,2.9366,2.9413,2.9482,2.9538,2.9652,2.968,2.9745,2.9741,2.9809,2.975,2.9748,2.9742,2.9739,2.9745,2.9821,2.9822,2.9824,2.9825,0,2.9122,2.9128,2.9185,2.9247,2.9295,2.9345,2.9392,2.9425,2.9441,2.949,2.9561,2.9605,2.9691,2.976,2.9826,2.9854,2.9843,2.9844,2.9862,2.9862,2.9853,2.9859,2.9656,2.9839,2.9837,2.9836,2.9836,2.9835,2.923,2.9283,2.9329,2.9394,2.9431,2.9475,2.9528,2.9553,2.9612,2.9682,2.9685,2.9763,2.9811,2.9898,2.993,2.9993,2.9972,2.9998,3.0005,3.0012,3.0017,2.9844,3.0005,3.0004,3.0004,3.0004,3.0003,0,2.9382,2.9411,2.9471,2.9537,2.9589,2.9574,2.9625,2.967,2.9739,2.9784,2.9839,2.9922,2.999,3.0024,3.0092,3.0135,3.0132,3.0153,3.015,3.0156,3.0032,3.0009,3.0154,3.0154,3.0154,3.0154,3.0154,3.0154,2.9468,2.9557,2.9568,2.9676,2.9705,2.9781,2.9812,2.9853,2.989,2.9983,3.0039,3.006,3.0102,3.0172,3.0234,3.0242,3.0268,3.0292,3.0298,3.018,3.0165,3.015,3.0129,3.0297,3.0297,3.0417,3.0418,3.0419]},{"header":{"parameterUnit":"m.s-1","parameterCategory":1,"la1":30.2991,"la2":30.254,"lo1":-89.0895,"lo2":-89.0444,"dy":0.0017,"dx":0.0017,"nx":28,"ny":28,"refTime":"2023-10-19T03:00:00:Z","depth":0,"parameterNumber":3,"parameterNumberName":"V-component_of_WINDS"},"data":[0,0,0,0,0,0,0,0,0,0,0,0,0,0,0,0,0,0,0,0,0,0,0,0,0,0,0,0,0,0,0,0,0,0,0,0,0,0,0,0,0,0,0,0,0,0,0,0,0,0,0,0,0,0,0,0,0,0,1.3605,1.3605,0,1.3592,1.3592,1.3592,1.3557,1.3556,1.3555,1.3555,1.3542,1.3542,1.3542,0,0,0,0,0,0,0,0,0,0,0,0,0,1.3599,1.3599,1.3605,1.3605,1.3605,1.3592,1.3592,1.3592,1.3557,1.3556,1.3555,1.3554,1.3542,1.3542,1.3542,0,0,0,0,0,0,0,0,0,0,0,0,0,1.3596,1.36,1.3605,1.3586,1.3584,1.3592,1.3592,1.3592,1.3557,1.3556,1.3555,1.3554,1.3541,1.3542,1.3543,1.3568,0,0,1.3544,1.3544,0,0,0,0,0,0,0,0,1.3596,1.3596,1.3589,1.3587,1.3585,1.3575,1.3585,1.3584,1.3557,1.3567,1.3555,1.3553,1.3554,1.3553,1.3553,1.3568,1.3567,1.3544,1.3545,1.3545,1.3545,0,0,0,0,0,0,0,1.3596,1.3596,1.36,1.3589,1.3586,1.3578,1.3576,1.3585,1.3567,1.3566,1.3564,1.3563,1.3552,1.3553,1.3553,1.3567,1.3544,1.3545,1.3545,1.3545,1.3601,1.3602,0,0,0,0,0,0,1.3599,1.3597,1.36,1.3599,1.3588,1.3579,1.3577,1.3579,1.3567,1.3564,1.3564,1.3561,1.3552,1.3552,1.3552,1.3581,1.3545,1.3545,1.3546,1.36,1.3601,1.3603,0,0,0,0,0,0,1.3599,1.36,1.3601,1.3597,1.3597,1.358,1.3583,1.358,1.358,1.3565,1.3561,1.3567,1.3552,1.3551,1.3564,1.358,1.3545,1.3546,1.3599,1.36,1.3602,1.3639,0,0,0,0,0,0,1.3599,1.36,1.361,1.3598,1.3597,1.3613,1.3584,1.358,1.3581,1.3577,1.3567,1.3564,1.3551,1.3564,1.3565,1.358,1.3546,1.3597,1.3599,1.3601,1.3637,1.3642,1.3647,0,0,0,0,0,1.3599,1.3621,1.361,1.3611,1.3609,1.3614,1.3614,1.3597,1.3582,1.3592,1.3582,1.3565,1.3578,1.3565,1.3566,1.3582,1.3596,1.3599,1.3601,1.3634,1.3641,1.3647,0,0,0,0,0,0,1.3635,1.3619,1.3607,1.3626,1.3622,1.3608,1.362,1.3605,1.3605,1.3602,1.3582,1.358,1.3596,1.359,1.3576,1.3606,1.3584,1.3587,1.3609,1.3615,1.362,1.3621,1.3547,0,0,0,0,0,1.3646,1.3651,1.3637,1.3655,1.3653,1.3637,1.3639,1.3626,1.3621,1.3619,1.3611,1.3606,1.3609,1.3612,1.3614,1.3636,1.3633,1.3647,1.3652,1.3656,1.3659,1.3669,1.3675,1.3611,1.3611,1.3611,0,0,1.3667,1.3659,1.3664,1.3662,1.3657,1.3663,1.3636,1.3644,1.3648,1.3621,1.3632,1.3626,1.362,1.3637,1.3644,1.3633,1.3676,1.3659,1.3663,1.3663,1.3672,1.3678,1.3684,1.3613,1.3613,1.3612,0,0,1.3708,1.3703,1.3717,1.3713,1.3706,1.3695,1.3698,1.3687,1.3682,1.3693,1.3672,1.3677,1.3683,1.3679,1.3678,1.3718,1.3702,1.3719,1.3746,1.3756,1.3761,1.3765,1.3779,1.3784,1.3722,1.3722,1.3722,0,1.3736,1.3744,1.3726,1.3735,1.3735,1.371,1.3724,1.3721,1.3715,1.3715,1.3703,1.3709,1.3703,1.3719,1.3729,1.3729,1.3732,1.372,1.3762,1.3766,1.377,1.3783,1.3788,1.3724,1.3724,1.3724,1.3723,0,1.3778,1.3784,1.3796,1.3791,1.3792,1.3804,1.3787,1.379,1.3777,1.3768,1.3779,1.3771,1.3771,1.3774,1.3762,1.3788,1.3781,1.3765,1.3743,1.3778,1.379,1.3795,1.3727,1.3726,1.3726,1.3725,0,0,1.3843,1.3826,1.3831,1.3828,1.3819,1.3823,1.3833,1.3833,1.3836,1.3833,1.384,1.3846,1.3831,1.383,1.3817,1.3826,1.3857,1.3809,1.3809,1.3818,1.3885,1.3896,1.3902,1.3847,1.3848,1.3848,1.3885,0,1.3881,1.3898,1.3881,1.3901,1.3906,1.3882,1.3891,1.3886,1.3877,1.388,1.387,1.3874,1.3855,1.3854,1.3862,1.3852,1.387,1.3849,1.3853,1.3854,1.3855,1.3908,1.3921,1.3956,1.389,1.389,1.3891,0,1.3929,1.3928,1.3948,1.3936,1.3938,1.3946,1.3944,1.3947,1.3941,1.3934,1.3932,1.3917,1.3925,1.3904,1.3916,1.3901,1.3902,1.3898,1.3898,1.3898,1.3874,1.3909,1.3967,1.3972,1.3898,1.3897,1.3897,0,1.3974,1.3977,1.3989,1.3987,1.3974,1.3981,1.3975,1.3968,1.3968,1.3967,1.3967,1.3966,1.3966,1.3965,1.395,1.3936,1.3963,1.3941,1.3957,1.3958,1.3964,1.3964,1.4022,1.3965,1.3965,1.3965,1.3965,0,1.4019,1.4032,1.4009,1.4017,1.403,1.4011,1.4025,1.4018,1.4011,1.4017,1.3996,1.4002,1.3981,1.3984,1.3972,1.3983,1.3983,1.3978,1.3974,1.3979,1.398,1.3979,1.3976,1.3967,1.3966,1.3966,1.3966,0,1.4071,1.4056,1.4068,1.4054,1.4051,1.4062,1.405,1.4056,1.4046,1.4053,1.4054,1.4037,1.404,1.4024,1.4025,1.4016,1.4033,1.4026,1.4035,1.4033,1.405,1.4049,1.411,1.4117,1.4056,1.4057,1.4057,0,1.4101,1.411,1.4097,1.41,1.4095,1.4099,1.4099,1.4081,1.4082,1.4075,1.4082,1.4083,1.4083,1.4088,1.4076,1.4076,1.4068,1.4089,1.4068,1.4072,1.4068,1.4067,1.4068,1.4094,1.4095,1.4095,1.4096,0,1.4155,1.4147,1.4148,1.4146,1.4147,1.4145,1.4142,1.4145,1.4124,1.4127,1.4129,1.4129,1.4128,1.4129,1.4127,1.4121,1.4105,1.4103,1.4106,1.4112,1.4116,1.4113,1.4047,1.4101,1.4101,1.41,1.41,1.41,1.4196,1.4203,1.4195,1.4197,1.4192,1.4189,1.4194,1.4184,1.4186,1.4184,1.4173,1.4177,1.417,1.4164,1.416,1.4163,1.4153,1.4159,1.416,1.4162,1.4164,1.4116,1.4163,1.4163,1.4162,1.4162,1.4162,0,1.4249,1.4242,1.4244,1.424,1.4241,1.4225,1.4221,1.4223,1.4227,1.4221,1.4221,1.4224,1.4224,1.4212,1.4211,1.4216,1.4209,1.4216,1.4216,1.4215,1.4174,1.4171,1.4222,1.4222,1.4222,1.4222,1.4222,1.4222,1.4276,1.4287,1.4278,1.4286,1.4279,1.4283,1.4282,1.4279,1.4274,1.4278,1.4278,1.427,1.4262,1.426,1.426,1.4256,1.4257,1.4267,1.4261,1.4223,1.4217,1.4212,1.4209,1.4267,1.4268,1.4301,1.4301,1.4302]}]]